TimeIST,TemperatureF,Dew PointF,Humidity,Sea Level PressureIn,VisibilityMPH,Wind Direction,Wind SpeedMPH,Gust SpeedMPH,PrecipitationIn,Events,Conditions,WindDirDegrees,DateUTC
12:00 AM,93.2,68.0,44,29.50,2.5,West,12.7,-,N/A,,Haze,280,2013-06-23 18:30:00
1:00 AM,91.4,68.0,46,29.50,2.5,West,10.4,-,N/A,,Haze,280,2013-06-23 19:30:00
2:00 AM,89.6,68.0,49,29.50,2.5,WNW,9.2,-,N/A,,Haze,290,2013-06-23 20:30:00
2:30 AM,90,69,41,29.40,2,WNW,9.2,,,,Haze,290,2013-06-23 21:00:00
3:00 AM,89.6,68.0,49,29.50,2.5,WNW,10.4,-,N/A,,Haze,290,2013-06-23 21:30:00
4:00 AM,87.8,68.0,52,29.50,2.5,WNW,9.2,-,N/A,,Haze,300,2013-06-23 22:30:00
5:00 AM,87.8,68.0,52,29.50,2.5,WNW,8.1,-,N/A,,Haze,300,2013-06-23 23:30:00
5:30 AM,88,69,43,29.42,2,WNW,6.9,,,,Haze,290,2013-06-24 00:00:00
6:00 AM,87.8,69.8,55,29.53,2.5,WNW,9.2,-,N/A,,Haze,300,2013-06-24 00:30:00
7:00 AM,87.8,69.8,55,29.53,2.5,WNW,8.1,-,N/A,,Haze,300,2013-06-24 01:30:00
8:00 AM,89.6,69.8,52,29.53,2.5,WNW,13.8,-,N/A,,Haze,300,2013-06-24 02:30:00
8:30 AM,90,69,41,29.44,2,WNW,13.8,,,,Haze,290,2013-06-24 03:00:00
9:00 AM,91.4,69.8,49,29.56,2.5,WNW,15.0,-,N/A,,Haze,300,2013-06-24 03:30:00
10:00 AM,93.2,68.0,44,29.56,2.5,WNW,10.4,21.9,N/A,,Haze,300,2013-06-24 04:30:00
11:00 AM,95.0,69.8,44,29.56,2.5,West,12.7,-,N/A,,Haze,280,2013-06-24 05:30:00
11:30 AM,97,69,30,29.44,2,WNW,10.4,,,,Haze,290,2013-06-24 06:00:00
12:00 PM,96.8,68.0,39,29.53,2.5,Variable,6.9,-,N/A,,Haze,0,2013-06-24 06:30:00
1:00 PM,100.4,68.0,35,29.53,2.5,Variable,5.8,-,N/A,,Haze,0,2013-06-24 07:30:00
2:00 PM,100.4,66.2,33,29.50,2.5,Variable,6.9,-,N/A,,Haze,0,2013-06-24 08:30:00
2:30 PM,102,67,24,29.39,2,West,6.9,,,,Haze,270,2013-06-24 09:00:00
3:00 PM,102.2,66.2,31,29.47,2.5,West,6.9,-,N/A,,Haze,270,2013-06-24 09:30:00
4:00 PM,102.2,66.2,31,29.44,2.5,West,6.9,-,N/A,,Haze,280,2013-06-24 10:30:00
5:00 PM,102.2,66.2,31,29.44,2.5,West,5.8,-,N/A,,Haze,260,2013-06-24 11:30:00
6:00 PM,102.2,66.2,31,29.44,2.5,West,4.6,-,N/A,,Haze,280,2013-06-24 12:30:00
7:00 PM,100.4,66.2,33,29.44,2.5,WNW,3.5,-,N/A,,Haze,290,2013-06-24 13:30:00
8:00 PM,98.6,68.0,37,29.47,2.5,Variable,1.2,-,N/A,,Haze,0,2013-06-24 14:30:00
8:30 PM,95,70,35,29.38,2,ESE,3.5,,,,Haze,110,2013-06-24 15:00:00
9:00 PM,95.0,69.8,44,29.50,2.5,East,3.5,-,N/A,,Haze,90,2013-06-24 15:30:00
10:00 PM,95.0,69.8,44,29.50,2.5,SSE,3.5,-,N/A,,Haze,160,2013-06-24 16:30:00
11:30 PM,92,73,44,29.45,2,ENE,9.2,,,,Haze,70,2013-06-24 18:00:00